Weather History for KFAR - November, 2010

Change the Weather History Date:

Monday, November 15, 2010

  Actual Average Record
Temperature  
Mean Temperature 30 °F 29 °F  
Max Temperature 34 °F 38 °F 64 °F (1953)
Min Temperature 25 °F 21 °F -14 °F (1881)
Degree Days  
Heating Degree Days 35 36  
Month to date heating degree days 355 474  
Since 1 July heating degree days 1086 1350  
Cooling Degree Days 0 0  
Month to date cooling degree days 0 0  
Year to date cooling degree days 611 551  
Moisture  
Dew Point 23 °F    
Average Humidity 73    
Maximum Humidity 85    
Minimum Humidity 61    
Precipitation  
Precipitation 0.00 in 0.03 in 0.52 in (1958)
Month to date precipitation 0.04 0.55  
Year to date precipitation 27.04 21.33  
Snow  
Snow 0.00 in 0.30 in 3.20 in (1947)
Month to date snowfall 0.0 2.8  
Since 1 July snowfall 1.0 3.5  
Since 1 September snowfall 1.0 3.5  
Snow Depth 0.00 in    
Sea Level Pressure  
Sea Level Pressure 29.78 in    
Wind  
Wind Speed 2 mph (NNW)    
Max Wind Speed 8 mph    
Max Gust Speed 10 mph    
Visibility 10 miles    
Events      
T = Trace of Precipitation, MM = Missing Value Source: NWS Daily Summary

Daily Weather History Graph

Daily Weather History Graph

Search for Another Location

Airport or City:

Trip Planner

Search our weather history database for the weather conditions in past years. The results will help you decide how hot, cold, wet, or windy it might be!

Date:

Astronomy

Nov. 15, 2010 Rise Set
Actual Time 7:30 AM CST 4:52 PM CST
Civil Twilight 6:57 AM CST 5:25 PM CST
Nautical Twilight 6:20 AM CST 6:02 PM CST
Astronomical Twilight 5:44 AM CST 6:38 PM CST
Moon 1:55 PM CST (11/15) 1:15 AM CST (11/15)
Length of Visible Light 10h 28m
Length of Day
9h 22m
Waxing Gibbous, 69% of the Moon is Illuminated
Nov 15
Waxing Gibbous
Nov 21
Full
Nov 28
Last Quarter
Dec 5
New
Dec 13
First Quarter

Hourly Weather History & Observations

Time (CST) Temp. Windchill Dew Point Humidity Pressure Visibility Wind Dir Wind Speed Gust Speed Precip Events Conditions
12:53 AM 30.9 °F - 25.0 °F 79% 29.70 in 10.0 mi Calm Calm - N/A   Overcast
1:53 AM 28.9 °F 25.2 °F 24.1 °F 82% 29.70 in 9.0 mi WNW 3.5 mph - N/A   Overcast
2:53 AM 30.0 °F - 24.1 °F 79% 29.70 in 9.0 mi Calm Calm - N/A   Overcast
3:53 AM 30.0 °F 25.2 °F 24.1 °F 79% 29.71 in 9.0 mi West 4.6 mph - N/A   Overcast
4:53 AM 30.0 °F - 24.1 °F 79% 29.72 in 9.0 mi Calm Calm - N/A   Overcast
5:53 AM 30.0 °F - 24.1 °F 79% 29.73 in 10.0 mi Calm Calm - N/A   Overcast
6:53 AM 30.9 °F - 24.1 °F 76% 29.73 in 10.0 mi Calm Calm - N/A   Overcast
7:53 AM 30.9 °F - 23.0 °F 72% 29.75 in 9.0 mi Calm Calm - N/A   Overcast
8:53 AM 30.9 °F 27.5 °F 23.0 °F 72% 29.77 in 9.0 mi North 3.5 mph - N/A   Overcast
9:53 AM 30.9 °F 27.5 °F 23.0 °F 72% 29.78 in 10.0 mi NW 3.5 mph - N/A   Overcast
10:53 AM 32.0 °F 24.8 °F 23.0 °F 69% 29.79 in 10.0 mi NNW 8.1 mph - N/A   Overcast
11:53 AM 32.0 °F - 23.0 °F 69% 29.80 in 10.0 mi Calm Calm - N/A   Overcast
12:53 PM 33.1 °F 27.7 °F 24.1 °F 70% 29.80 in 10.0 mi NNW 5.8 mph - N/A   Overcast
1:53 PM 33.1 °F 26.9 °F 23.0 °F 66% 29.80 in 10.0 mi NNW 6.9 mph - N/A   Overcast
2:53 PM 32.0 °F 27.5 °F 21.9 °F 66% 29.80 in 10.0 mi NNW 4.6 mph - N/A   Mostly Cloudy
3:10 PM 33.8 °F - 21.2 °F 60% 29.77 in 10.0 mi Calm Calm - N/A   Scattered Clouds
3:18 PM 33.8 °F 27.7 °F 21.2 °F 60% 29.77 in 10.0 mi NNW 6.9 mph - N/A   Mostly Cloudy
3:53 PM 33.1 °F - 21.9 °F 64% 29.82 in 10.0 mi Calm Calm - N/A   Overcast
4:53 PM 30.9 °F 25.2 °F 23.0 °F 72% 29.83 in 9.0 mi NNW 5.8 mph - N/A   Overcast
5:53 PM 28.0 °F 24.2 °F 21.9 °F 78% 29.84 in 9.0 mi NW 3.5 mph - N/A   Mostly Cloudy
6:08 PM 28.4 °F - 21.2 °F 74% 29.80 in 10.0 mi Calm Calm - N/A   Scattered Clouds
6:20 PM 28.4 °F - 21.2 °F 74% 29.80 in 10.0 mi Calm Calm - N/A   Mostly Cloudy
6:53 PM 27.0 °F - 21.9 °F 81% 29.84 in 10.0 mi Calm Calm - N/A   Overcast
7:27 PM 26.6 °F - 21.2 °F 80% 29.80 in 10.0 mi Calm Calm - N/A   Mostly Cloudy
7:53 PM 28.0 °F - 21.9 °F 78% 29.84 in 10.0 mi Calm Calm - N/A   Mostly Cloudy
8:53 PM 28.0 °F - 21.9 °F 78% 29.84 in 10.0 mi Calm Calm - N/A   Overcast
9:53 PM 27.0 °F 23.0 °F 21.9 °F 81% 29.84 in 9.0 mi East 3.5 mph - N/A   Overcast
10:17 PM 28.4 °F 24.6 °F 21.2 °F 74% 29.80 in 9.0 mi SE 3.5 mph - N/A   Overcast
10:53 PM 28.0 °F - 21.9 °F 78% 29.83 in 8.0 mi Calm Calm - N/A   Overcast
11:00 PM 28.4 °F - 23.0 °F 80% 29.79 in 8.0 mi Calm Calm - N/A   Overcast
11:07 PM 28.4 °F - 23.0 °F 80% 29.78 in 8.0 mi Calm Calm - N/A   Overcast
11:53 PM 30.0 °F - 23.0 °F 75% 29.81 in 9.0 mi Calm Calm - N/A   Overcast